Theta_e
347 346 347 346 345 343 343 341 338 335 333 332 331 331 331 330 330 332 332 332 332 333 334 335 336 335 333 332 330 329 329 330 334 336 338 339 339 339 340 341 342 343 342 342 341 336 334 332 333 336 337 337 336 337 337 338 340 340 340 342 343 343 344 344 344 342 341 340 340 341 342 343 345 346 346 346 345 345 344 342 341 340 340 341 342
346 345 345 345 345 343 342 341 337 331 328 326 326 326 326 326 326 327 327 327 327 327 328 329 329 329 329 330 330 330 332 335 340 341 341 341 341 341 341 342 344 344 343 342 341 336 333 332 335 337 338 338 338 339 339 340 340 340 341 341 343 344 344 344 344 343 342 342 342 342 343 345 346 345 345 345 345 345 344 343 342 341 341 342 343
344 345 345 344 343 342 341 339 336 332 328 327 326 326 327 327 328 328 328 329 329 329 329 329 329 330 333 335 336 336 339 341 343 344 343 342 342 341 342 343 344 343 342 342 340 336 333 333 337 338 340 340 341 341 340 340 341 340 341 341 342 343 343 343 344 343 342 342 343 343 344 345 345 345 344 344 344 345 345 344 342 341 342 342 343
344 344 344 343 342 341 341 339 337 335 334 331 330 330 329 329 330 332 333 335 335 335 335 335 336 337 340 341 342 342 343 343 343 344 343 341 341 342 343 344 344 344 342 342 341 338 334 334 338 340 341 342 342 342 341 342 341 341 342 341 342 342 343 342 342 342 342 342 343 342 344 345 345 345 344 343 344 345 345 344 342 342 342 343 343
344 343 342 341 342 341 340 338 337 337 338 336 335 334 334 334 335 337 339 340 340 340 341 341 341 342 342 343 344 344 343 344 344 343 341 340 342 344 344 343 343 343 343 343 341 339 335 336 340 342 343 342 343 343 343 343 342 342 342 341 341 341 341 341 341 342 342 341 340 342 344 344 343 345 343 343 344 344 344 343 343 342 343 343 342
342 342 341 340 341 341 338 336 337 338 340 340 339 339 339 339 339 340 341 342 341 342 342 343 343 343 343 343 343 343 343 344 344 341 340 341 342 344 343 342 342 342 342 342 342 339 335 337 341 342 343 343 344 344 344 343 342 342 341 340 339 339 339 339 340 340 340 339 339 342 344 342 341 344 344 344 344 344 344 343 343 343 343 342 342
341 340 340 339 341 339 335 335 338 340 341 341 341 342 342 342 343 343 343 343 343 343 343 343 343 344 343 343 342 342 344 344 342 339 340 342 343 342 341 341 341 341 342 342 343 340 335 338 342 343 343 343 343 343 343 343 343 342 341 341 339 338 337 338 338 337 337 337 339 341 342 341 341 343 343 344 343 344 343 343 343 342 342 342 342
340 340 340 339 340 337 334 335 338 339 339 340 341 342 342 343 344 344 344 344 344 343 344 343 344 344 343 343 343 343 345 343 340 339 341 342 342 341 341 342 342 342 341 342 342 340 336 339 343 343 343 344 344 343 343 343 343 343 342 342 341 339 338 337 337 336 336 338 339 341 341 341 342 342 342 343 343 343 343 343 343 342 342 343 342
340 339 338 338 339 337 336 337 338 338 339 340 341 342 342 343 344 343 343 343 343 343 343 343 344 344 344 344 343 343 344 342 340 341 341 341 341 342 342 342 342 342 341 342 342 340 336 338 343 343 343 344 343 343 343 343 342 342 343 343 341 339 337 336 335 334 335 338 340 341 341 341 342 341 342 344 343 343 343 342 343 342 343 342 339
341 339 337 336 336 336 338 338 338 340 341 341 342 342 342 343 343 343 343 343 343 343 343 343 344 344 344 343 343 343 343 342 340 341 342 342 342 342 342 342 342 342 342 342 342 340 337 337 342 343 344 344 343 343 343 343 342 342 343 343 342 339 337 335 335 334 333 337 341 342 341 342 342 343 343 344 343 343 343 343 343 343 342 340 336
342 340 336 335 333 335 339 339 338 341 342 342 342 342 342 342 342 342 343 343 343 343 343 343 343 343 343 343 343 343 343 343 341 342 343 343 342 342 342 342 342 342 343 342 341 341 337 336 341 343 344 343 343 343 343 343 342 342 343 343 342 339 337 336 337 336 334 336 341 342 342 342 343 344 344 343 343 343 343 343 343 343 342 339 335
342 340 337 333 329 335 341 339 338 341 342 342 342 342 341 340 341 342 342 342 342 343 344 343 343 343 343 343 343 343 343 343 343 343 344 344 343 343 343 343 342 342 343 343 342 341 338 335 338 342 342 343 343 343 343 343 343 343 343 342 341 338 337 337 338 338 336 336 339 340 341 342 342 343 343 343 342 342 342 343 342 341 341 339 335
341 340 336 331 327 335 341 339 338 341 342 342 342 342 340 340 340 341 341 341 342 343 344 344 344 344 344 343 343 343 343 342 343 343 344 344 343 343 343 343 342 342 343 342 342 341 339 335 336 338 340 342 342 343 343 343 343 343 343 342 341 338 336 337 338 339 339 338 338 339 341 342 342 342 342 342 342 342 342 342 342 341 341 339 335
341 338 334 329 327 334 340 338 339 342 342 342 342 341 340 340 340 340 340 340 341 342 343 344 344 344 344 343 343 343 343 342 342 342 342 342 342 342 343 342 342 342 341 341 341 341 340 338 336 338 340 342 343 343 343 343 343 343 343 342 341 338 335 336 338 339 339 340 340 340 341 342 342 342 342 342 341 342 341 341 341 341 341 339 336
339 335 334 333 330 333 339 338 338 341 341 342 342 341 341 341 340 340 340 340 341 342 342 342 342 343 343 343 343 343 343 343 342 341 341 341 341 342 342 342 341 341 341 341 342 341 341 339 337 339 341 342 343 343 343 343 343 343 343 342 341 339 336 336 336 337 339 340 340 340 341 341 342 341 341 341 341 341 341 341 340 340 341 340 338
338 336 338 337 332 334 339 338 338 340 341 342 341 341 342 341 341 340 341 341 341 341 342 342 341 342 342 343 342 342 342 341 342 341 341 341 341 342 342 342 342 342 342 341 341 341 341 340 337 337 340 342 342 342 342 342 342 342 342 342 341 339 338 337 336 336 338 338 340 340 340 340 341 341 341 341 341 340 341 340 340 340 341 341 339
340 340 341 339 332 334 339 338 338 340 341 341 340 342 342 342 341 341 342 342 341 341 341 342 342 342 342 343 342 341 340 340 342 341 340 339 339 340 340 341 341 341 341 341 341 341 341 341 338 337 338 340 341 341 341 341 341 341 341 341 341 340 338 337 337 336 337 338 339 340 340 340 341 341 341 341 341 341 341 340 339 339 339 340 340
342 342 341 339 333 334 339 338 339 339 340 340 341 342 342 342 342 342 342 341 341 341 340 341 341 342 342 342 341 340 340 341 340 341 341 340 338 338 338 339 340 340 340 340 340 340 341 341 340 338 337 339 340 340 340 340 340 339 340 341 341 340 339 338 338 337 338 338 338 338 339 339 339 340 340 340 340 341 341 340 339 339 338 339 339
343 342 342 340 332 333 338 338 339 339 339 339 340 342 342 342 341 341 341 340 340 339 339 340 340 340 340 340 340 339 340 340 339 340 341 341 340 339 338 338 339 339 340 341 340 340 341 341 341 339 338 339 340 340 340 340 339 339 339 341 341 340 339 338 338 338 338 338 337 337 336 337 336 337 338 338 339 339 340 341 339 339 338 338 338
344 343 343 340 331 333 337 338 340 339 339 339 339 341 342 342 341 340 340 339 339 339 339 339 339 339 339 339 339 339 339 340 340 340 340 340 340 339 338 338 336 337 338 339 340 340 341 341 340 340 339 340 341 341 341 340 340 339 340 341 341 340 339 338 338 338 338 339 338 338 336 335 334 335 336 336 337 337 338 340 340 340 339 339 339
344 343 344 340 332 333 336 338 340 340 339 339 339 340 341 341 341 340 340 340 339 339 340 340 340 340 340 340 338 339 339 340 340 340 341 340 340 339 338 338 337 337 336 336 337 339 340 340 340 340 339 339 340 341 341 341 340 340 341 341 341 340 339 338 338 338 339 339 339 339 337 335 334 333 333 334 334 335 336 337 338 339 339 340 340
343 343 345 340 331 332 335 337 339 340 339 339 339 339 340 341 340 341 340 340 340 339 341 341 340 340 340 339 338 337 338 339 340 340 341 341 341 341 340 339 339 339 338 336 335 335 336 337 339 340 339 340 340 341 341 341 341 342 342 341 341 340 338 336 337 338 339 339 339 339 337 336 335 335 334 334 333 333 334 334 334 335 337 339 340
344 344 344 339 331 330 334 336 337 339 338 338 339 339 340 340 339 340 339 340 340 339 341 340 338 338 337 337 337 337 337 338 340 341 341 341 342 341 341 341 340 341 341 339 337 336 335 337 339 340 340 340 340 341 341 341 342 342 341 340 340 339 337 334 334 337 338 338 338 338 337 336 335 336 336 336 335 333 331 329 330 331 333 336 338
343 344 342 338 332 328 332 334 336 338 336 337 339 339 339 339 339 340 338 339 338 338 338 337 336 335 334 335 335 336 336 337 339 340 341 341 341 341 341 342 343 342 342 341 341 340 338 339 339 339 339 340 341 341 341 341 341 340 340 339 338 338 336 334 332 335 338 338 338 338 337 336 335 336 337 337 336 334 331 329 329 329 331 334 336
342 343 341 336 331 328 329 331 333 335 335 335 337 338 338 337 339 339 338 337 335 334 335 335 334 333 333 333 333 333 334 335 336 338 340 341 340 340 342 343 343 344 342 341 341 341 340 339 339 339 340 340 340 340 340 340 340 339 340 339 338 337 336 335 332 333 336 337 337 337 337 336 336 336 337 337 337 335 333 331 330 330 330 332 335
342 342 339 334 331 327 327 328 330 332 332 334 336 337 335 335 337 337 337 335 333 332 333 333 333 332 333 333 333 332 333 334 334 335 338 340 340 341 342 343 343 344 343 341 340 340 340 339 339 340 340 340 340 340 340 340 340 340 339 339 338 337 337 336 334 333 335 337 338 338 337 337 337 337 337 336 337 336 334 333 333 332 331 330 332
342 340 337 333 330 327 326 327 328 330 330 331 335 335 331 332 333 335 335 335 333 333 332 333 333 332 334 335 335 335 335 336 334 334 337 339 341 343 344 344 343 343 344 342 340 340 339 339 339 339 339 339 339 339 339 340 340 340 339 339 338 337 336 335 335 335 335 336 338 339 338 338 339 339 339 338 336 336 335 335 335 334 333 330 328
341 339 337 332 328 326 325 326 326 328 328 329 332 331 329 329 330 331 333 334 335 335 335 335 335 335 338 339 339 338 338 338 337 337 338 340 342 344 345 344 343 342 343 343 341 340 340 339 339 339 339 339 339 339 339 340 340 340 340 339 338 336 334 334 334 334 335 335 336 338 339 338 340 340 340 340 338 336 336 336 336 336 335 333 330
340 338 335 331 327 325 325 324 326 326 327 327 328 329 328 328 328 330 332 333 336 338 338 338 338 339 340 340 339 340 340 341 341 341 340 341 342 344 345 344 344 343 343 343 343 342 341 340 340 340 340 340 340 340 340 341 341 341 340 339 339 337 335 334 334 333 333 334 335 337 339 338 340 341 340 341 339 336 337 337 337 336 336 335 334
339 337 333 330 326 325 325 324 325 326 326 326 327 327 328 327 327 329 331 332 336 340 340 340 339 340 339 338 339 340 342 344 344 343 343 343 344 344 344 344 344 343 342 343 343 343 343 342 341 340 340 341 340 340 341 341 341 341 340 339 339 338 338 337 336 335 333 333 333 335 338 339 339 340 340 340 339 337 338 339 338 337 337 337 336
339 336 331 329 327 325 325 325 325 326 326 326 326 326 327 327 329 330 330 332 335 339 341 341 341 341 340 337 338 341 343 344 345 345 345 345 345 345 344 345 344 343 343 343 344 344 345 344 343 342 342 341 340 340 341 341 341 341 341 339 338 338 338 338 337 337 336 334 332 332 336 339 339 339 339 340 339 339 339 340 340 339 339 338 337
338 336 331 329 327 325 326 325 325 325 326 326 326 326 327 327 328 330 332 333 334 336 339 341 341 341 341 339 339 342 343 344 346 346 345 345 346 345 345 346 345 344 343 343 343 344 345 345 345 344 344 342 340 340 340 340 341 341 340 339 338 338 338 338 338 337 337 335 333 331 333 337 340 340 339 339 339 340 340 340 341 341 340 340 339
338 335 333 330 327 325 325 326 325 326 326 326 326 326 326 326 327 328 332 335 336 337 338 340 342 342 342 343 343 343 343 344 346 346 345 346 346 345 346 346 345 344 343 343 343 344 345 345 345 345 345 343 340 339 340 340 341 340 340 339 337 336 336 338 338 338 338 337 335 333 332 334 338 339 340 340 340 340 340 341 340 340 340 340 340
339 337 335 331 328 325 325 325 325 325 326 326 326 326 326 326 326 327 330 333 336 338 338 339 343 344 343 345 346 345 345 345 346 347 346 346 345 346 346 346 345 345 344 344 344 344 344 343 344 345 346 345 343 340 340 341 341 340 340 339 336 335 336 337 338 338 339 338 337 337 334 333 334 336 337 338 340 340 340 341 341 340 340 340 340
340 337 335 332 329 326 325 326 325 325 326 326 326 326 326 325 325 326 329 332 333 336 338 339 342 345 344 344 346 346 346 346 346 347 346 345 345 345 345 346 346 344 344 344 345 344 344 344 344 345 346 346 345 342 340 340 341 341 340 339 335 334 336 337 338 338 339 339 338 338 336 335 334 334 334 335 337 339 340 340 341 341 340 340 341
342 340 336 332 330 328 325 325 325 326 326 325 326 326 325 326 325 326 329 332 333 334 337 339 342 345 345 345 346 346 346 347 346 346 346 345 344 344 345 347 346 344 343 344 345 345 345 345 345 345 346 346 346 344 341 340 340 341 341 339 334 334 336 336 338 339 339 339 338 338 338 338 337 336 335 334 334 336 338 339 339 341 341 341 341
342 340 338 335 331 329 327 325 325 326 325 326 326 325 325 326 325 325 328 331 333 334 336 339 341 342 343 344 344 345 345 346 347 346 346 346 345 345 345 346 345 344 344 344 345 346 345 345 345 346 347 347 346 344 343 341 341 341 341 339 334 334 336 336 338 338 339 338 337 337 337 337 338 338 337 336 335 335 335 336 337 338 339 340 340
343 342 340 338 333 330 329 327 326 325 325 325 325 325 325 325 325 325 327 331 333 334 337 341 342 342 342 341 341 341 341 344 346 345 344 346 345 346 346 345 346 345 345 345 345 346 346 346 345 346 346 347 347 345 343 342 341 342 340 337 334 335 336 337 338 338 338 338 336 336 335 334 335 334 334 334 336 337 335 335 335 337 338 339 339
345 343 342 339 335 332 330 329 328 326 325 325 325 324 324 324 325 325 326 329 332 333 338 343 343 343 342 341 339 338 337 339 342 343 342 343 343 344 346 345 345 345 345 345 345 344 346 346 345 345 345 347 348 346 344 343 343 342 339 336 335 336 336 337 338 338 338 338 337 336 335 334 331 329 328 329 332 336 337 336 334 334 334 335 337
347 346 345 343 338 334 331 331 329 328 326 325 325 325 325 325 325 327 327 327 331 333 337 343 344 344 343 342 339 336 337 338 338 338 339 341 340 341 344 345 344 343 343 345 344 344 346 347 347 346 346 346 349 348 346 345 343 342 339 336 337 337 337 338 339 339 338 338 338 337 336 335 332 329 326 325 327 330 334 334 334 333 332 332 333
349 349 348 345 342 337 333 332 330 329 328 326 326 325 326 326 326 329 329 328 330 332 335 340 343 343 343 344 341 339 340 339 339 338 338 339 338 338 340 344 345 344 344 346 346 345 345 348 348 347 345 346 348 348 346 345 343 341 339 337 336 337 337 338 339 339 339 339 339 338 338 336 334 332 329 326 326 326 327 328 328 329 330 332 332
350 349 348 345 343 339 335 333 332 331 330 327 326 325 326 327 327 329 330 329 329 330 332 336 338 340 342 344 343 343 343 342 341 341 339 338 338 337 336 340 344 345 346 346 345 344 345 347 348 346 345 345 347 347 345 343 343 342 340 337 336 337 337 338 339 339 339 339 339 338 338 338 337 335 332 330 328 328 329 329 327 325 326 329 332
349 349 348 345 342 340 336 334 334 333 331 329 328 327 327 327 327 329 331 331 330 329 331 335 337 338 341 342 343 343 344 343 343 342 341 339 336 335 334 336 340 344 346 347 345 344 345 346 347 346 345 345 346 347 345 343 343 342 340 339 337 337 337 336 337 338 339 339 339 339 339 339 338 336 335 334 332 331 331 333 332 329 326 327 328
349 348 348 346 343 340 336 335 335 334 332 331 330 328 328 328 328 328 331 333 332 331 333 337 338 338 338 340 341 342 343 344 345 344 342 339 336 335 333 333 336 340 344 345 345 344 344 346 347 347 345 345 346 346 344 343 343 342 340 339 338 337 336 335 335 336 338 339 339 339 339 339 340 338 336 335 335 333 331 333 335 333 330 327 326
348 348 348 347 345 342 339 338 336 335 334 332 331 331 331 330 328 329 331 334 334 334 337 339 338 338 337 337 338 339 342 344 346 345 343 341 338 335 332 332 334 338 340 342 344 345 345 345 346 346 345 345 346 345 344 342 342 342 341 340 338 336 336 335 334 335 336 337 338 338 339 339 339 339 338 336 336 335 333 333 335 335 333 328 327
349 349 348 348 348 346 344 341 339 338 337 335 333 332 332 331 329 329 330 332 334 335 336 337 336 336 336 337 338 339 341 345 346 347 345 343 340 336 332 330 331 336 338 339 343 345 345 344 345 345 344 345 346 344 342 341 342 342 341 340 338 337 337 336 335 334 335 336 337 337 338 339 339 339 338 338 336 336 334 333 335 336 334 329 328
349 349 349 349 348 348 348 345 341 339 338 337 335 334 334 333 330 329 329 329 332 334 334 333 333 335 336 338 339 339 340 344 346 347 347 346 342 338 333 330 330 333 336 338 342 344 345 345 344 344 344 345 345 344 342 341 341 341 341 340 338 337 338 338 337 335 334 335 337 337 337 337 338 338 338 338 337 336 334 334 335 336 335 331 328
350 349 349 349 349 348 349 347 344 340 338 338 336 336 335 334 332 329 329 329 330 332 333 333 333 334 336 338 339 339 340 343 345 346 347 347 345 341 336 333 331 331 334 336 339 342 344 346 346 344 345 345 345 345 344 342 340 340 340 338 338 337 337 340 340 338 336 335 336 336 336 337 337 337 337 338 337 336 335 334 335 336 336 334 331
350 350 350 349 349 349 349 349 347 344 341 339 338 337 336 335 332 331 330 330 330 331 332 333 334 334 335 337 338 339 340 343 344 344 345 345 345 344 340 335 333 333 334 335 337 340 344 346 346 346 345 345 345 345 345 344 342 341 340 339 339 338 338 340 341 340 339 338 336 336 336 337 336 336 336 336 337 337 336 335 335 336 336 336 334
350 350 350 349 349 349 350 350 349 347 345 343 340 339 337 336 334 333 333 332 332 332 333 333 334 335 335 335 337 339 340 342 343 343 343 343 343 343 340 337 335 334 334 336 337 339 343 345 345 346 346 346 346 345 346 347 346 344 342 341 340 339 338 339 340 340 340 338 336 335 335 336 335 335 335 335 336 337 336 336 336 336 337 336 336
351 351 350 350 350 350 350 350 350 348 347 346 344 342 340 339 337 336 335 335 335 334 334 333 333 334 335 335 336 338 338 339 341 342 341 342 341 341 340 337 336 334 334 336 337 339 343 345 345 346 346 346 346 346 346 346 347 345 342 341 341 340 338 338 340 340 338 335 334 334 335 336 335 334 335 335 336 337 337 337 336 337 337 337 336
Wind_Speed
24 26 25 25 23 22 21 20 22 22 23 22 21 19 18 17 17 17 16 16 15 15 14 14 14 13 12 12 11 10 10 10 9 9 9 10 10 9 9 8 7 7 7 7 7 6 5 5 6 8 8 7 7 7 8 9 9 8 8 8 9 10 10 11 11 11 11 12 11 11 11 10 10 10 11 11 12 12 11 11 10 10 10 11 11
26 28 26 25 23 21 20 20 21 21 21 20 19 17 16 16 15 15 15 15 14 14 14 14 13 13 12 11 11 11 10 10 10 10 11 11 10 9 9 8 7 7 7 7 7 6 5 6 8 8 8 7 8 8 9 10 10 8 9 9 9 10 10 10 11 11 11 11 11 10 10 10 9 10 10 11 12 12 12 11 10 10 10 11 12
28 28 26 25 24 21 19 19 19 19 18 16 15 14 14 14 14 14 13 13 13 13 13 13 12 12 11 11 10 11 11 11 11 11 11 11 10 9 9 8 7 7 7 7 6 6 6 8 9 8 8 8 9 10 10 11 10 9 10 10 9 10 9 9 10 10 10 10 10 10 10 9 9 10 10 11 12 12 13 11 10 10 10 11 11
28 27 26 25 24 21 19 18 18 17 16 15 14 13 13 13 13 13 13 13 12 12 12 12 12 12 11 11 10 10 11 11 11 12 11 11 10 9 9 8 7 7 7 7 7 7 8 9 9 8 7 8 9 10 11 11 11 11 11 10 9 9 9 9 9 9 9 9 9 9 8 9 10 11 10 11 12 13 13 11 10 10 11 11 11
28 27 26 25 24 21 20 19 17 17 16 15 14 14 13 13 14 14 14 14 14 13 13 13 12 12 11 11 10 10 10 11 12 12 11 10 9 9 9 8 7 8 7 7 8 8 9 9 9 8 8 9 10 10 11 12 11 11 11 10 9 9 9 9 8 8 9 8 8 8 8 9 10 11 11 11 11 12 12 12 11 10 11 11 11
28 28 27 26 24 21 20 19 18 17 16 15 15 14 14 14 15 15 15 15 14 14 13 13 13 12 11 11 10 10 10 11 12 11 10 9 8 8 8 8 8 8 7 7 8 9 9 9 8 9 9 10 11 11 12 12 11 11 11 10 10 10 9 9 9 9 8 8 8 9 9 9 10 12 12 11 11 11 12 12 12 11 10 10 12
28 28 27 26 24 22 20 19 18 17 17 16 16 15 15 15 14 14 14 14 14 14 14 13 13 12 11 10 10 10 10 11 12 11 9 9 8 8 8 8 8 8 7 8 8 9 9 8 8 9 10 11 11 11 11 11 11 10 11 11 11 11 10 10 10 9 8 8 8 9 9 9 9 12 12 11 11 11 12 11 11 11 10 10 11
29 28 27 26 24 22 20 19 18 18 18 17 17 16 15 15 14 14 14 14 14 14 14 13 12 11 10 10 9 9 9 11 12 10 10 9 9 8 9 9 9 8 8 8 8 9 9 8 8 9 10 10 11 10 10 10 10 10 10 11 11 11 11 11 10 9 8 8 9 9 9 9 9 11 11 11 11 11 12 11 11 10 10 11 10
29 28 27 26 24 21 20 20 19 18 18 18 17 16 15 14 14 13 13 13 13 13 13 12 12 11 10 9 9 9 10 11 10 10 9 9 8 8 8 8 9 9 8 8 8 9 9 8 7 8 9 10 10 10 10 10 10 10 10 11 11 11 12 11 10 10 9 10 10 10 10 10 10 10 11 11 11 12 12 11 11 10 9 10 8
29 27 27 26 24 22 21 20 19 18 18 17 17 15 14 14 13 13 13 13 13 12 12 12 11 10 10 10 9 9 10 10 9 9 9 9 8 8 8 8 9 9 9 9 9 9 9 8 7 8 9 9 9 9 9 10 10 10 10 11 11 11 12 11 11 11 10 11 12 11 12 12 11 11 12 11 11 12 12 11 10 10 9 10 9
29 27 27 25 24 23 22 20 18 18 18 17 16 15 14 13 13 12 12 12 12 12 12 11 11 10 10 10 10 10 10 10 9 9 9 9 8 8 8 8 9 9 9 9 9 9 9 9 7 7 9 9 8 9 9 9 9 9 10 10 11 11 11 11 10 11 11 12 13 13 13 13 12 12 12 12 12 12 12 11 10 10 10 10 9
29 27 27 25 24 23 22 20 18 18 18 17 15 15 14 13 13 12 12 12 12 11 11 11 11 11 10 10 10 10 10 10 10 9 8 9 8 9 9 9 9 8 8 8 8 8 8 9 9 8 8 8 7 8 9 9 10 10 10 10 10 11 11 11 10 11 12 12 13 13 13 13 12 12 11 11 11 11 10 10 10 11 11 10 10
29 27 27 25 24 23 21 19 18 18 17 16 15 15 14 14 13 12 12 11 11 11 11 11 10 11 10 10 10 11 11 11 10 9 8 8 8 8 9 8 9 9 9 9 8 9 8 9 9 8 7 7 6 7 9 9 10 10 9 9 10 10 10 10 10 11 11 11 12 12 13 12 12 12 11 10 10 10 10 9 9 10 11 10 10
30 28 27 25 24 22 21 19 18 18 17 16 15 14 14 14 13 13 12 12 11 11 11 11 10 10 11 11 11 11 11 11 10 10 9 8 8 8 9 8 8 9 9 9 9 8 8 8 9 8 7 6 6 7 9 10 9 9 9 9 9 10 10 10 11 11 11 11 11 12 12 11 12 11 11 11 10 9 9 9 9 10 10 10 10
30 29 26 24 23 22 20 19 18 17 17 15 14 14 14 13 13 13 13 12 12 11 11 11 11 11 11 11 11 12 11 11 10 10 10 9 8 9 9 8 8 9 9 9 8 8 8 8 8 8 7 7 7 7 8 9 9 9 8 8 9 9 9 10 11 11 11 10 11 11 11 11 11 11 10 10 9 9 9 9 8 9 9 10 10
30 28 26 24 23 23 21 19 18 17 16 15 14 14 14 13 13 13 13 13 12 12 12 12 12 12 12 12 11 11 12 11 10 10 10 10 9 9 10 10 9 10 10 9 8 8 8 8 7 7 7 7 7 7 8 9 8 8 8 7 8 8 9 10 11 11 11 10 10 10 10 10 9 9 10 9 8 8 8 7 7 8 8 9 9
29 27 25 24 23 23 21 20 19 18 16 15 15 14 14 14 13 13 13 13 12 12 12 12 13 13 12 12 12 11 12 12 11 10 10 11 11 10 10 11 10 10 10 9 8 8 8 7 7 7 7 7 7 8 8 8 7 8 8 7 7 7 8 9 9 10 11 10 9 9 9 9 8 8 9 8 7 7 8 8 7 6 7 8 8
28 27 25 23 24 23 22 21 20 18 16 16 15 14 14 14 13 13 13 13 13 12 13 13 13 13 13 13 12 12 13 13 12 11 10 10 11 10 10 11 11 10 9 10 9 8 8 7 7 7 7 7 7 7 7 7 7 7 7 7 7 7 7 8 8 9 9 9 9 9 9 9 9 9 8 8 7 6 7 7 7 6 6 7 7
28 27 25 23 24 23 22 22 20 19 17 17 16 15 14 14 13 13 13 14 13 13 14 14 14 14 14 14 13 13 13 13 13 12 11 10 10 11 11 11 10 10 9 9 9 8 8 7 7 7 7 8 8 8 7 7 6 6 7 7 7 7 7 7 7 7 8 8 8 8 9 9 9 9 8 8 7 7 7 7 7 6 5 6 6
27 27 25 24 24 23 23 23 21 19 18 17 16 16 15 14 14 14 14 14 15 15 15 15 15 15 14 14 14 14 14 13 13 13 12 12 11 11 11 10 10 9 8 9 9 8 8 7 7 7 8 9 9 9 8 7 6 7 7 7 7 7 7 7 7 6 6 7 7 7 8 9 9 9 9 8 7 6 7 7 7 5 5 5 5
28 27 25 24 24 24 24 23 22 19 18 17 17 17 16 15 15 15 15 15 16 16 16 15 15 14 13 13 13 13 13 13 12 12 12 12 12 11 11 11 10 10 9 9 9 8 8 8 8 8 9 9 9 9 9 8 7 7 7 7 7 7 7 7 7 6 6 6 6 6 6 8 8 8 8 8 7 6 6 6 6 5 5 5 5
29 28 25 25 25 24 24 24 23 20 19 18 17 17 16 16 16 16 16 16 16 16 16 15 15 14 13 12 12 11 12 12 11 11 11 11 11 10 10 10 10 10 10 10 9 9 9 9 9 10 10 10 10 10 9 8 8 7 7 7 7 7 7 6 6 6 5 5 6 5 5 6 7 7 7 7 7 7 6 6 6 5 5 4 4
30 29 26 26 26 25 25 24 23 21 20 19 18 18 17 17 17 17 17 17 16 16 16 15 15 15 14 12 11 10 10 10 10 10 10 10 10 9 9 9 9 9 10 10 10 10 10 10 10 10 11 11 11 10 9 8 8 8 8 8 7 7 7 6 6 6 5 5 5 5 5 6 6 7 7 6 6 6 6 5 5 6 6 5 4
32 29 28 28 26 26 25 25 24 22 21 20 20 19 18 18 17 17 17 16 16 16 15 15 15 14 13 12 11 10 9 8 9 9 9 8 8 9 9 9 8 8 9 10 10 11 11 12 11 11 11 11 11 10 9 9 9 8 8 8 8 8 7 7 6 6 6 5 5 5 5 5 6 6 6 5 5 5 5 5 5 6 6 6 5
32 30 29 29 28 27 25 25 23 22 21 21 21 19 19 19 18 18 17 16 16 16 15 15 14 13 12 11 10 9 7 7 7 8 9 8 8 8 9 8 8 8 9 9 10 11 12 12 12 12 11 11 10 10 9 8 8 8 8 7 7 7 7 7 7 6 5 5 5 5 5 5 6 6 5 5 4 4 4 4 4 5 6 6 6
33 32 31 30 29 27 26 25 23 22 21 21 21 20 20 19 19 18 17 16 15 16 15 15 14 12 11 9 9 8 7 7 6 7 9 9 8 8 8 8 8 8 8 8 9 10 11 12 12 11 11 10 9 9 8 7 7 7 7 7 6 7 7 7 6 6 5 4 4 5 4 5 5 5 5 4 4 4 4 3 3 4 5 5 6
35 33 32 31 30 28 26 25 23 23 21 21 21 20 20 19 18 17 16 16 16 16 15 15 14 12 11 9 8 8 7 6 6 7 9 9 8 7 7 7 7 7 7 8 8 9 10 10 10 9 9 9 8 8 7 6 6 6 6 6 6 6 6 6 6 5 5 4 4 4 4 4 5 5 4 4 4 3 3 3 3 3 4 4 5
35 34 33 32 32 30 27 25 23 23 21 21 21 20 20 19 19 17 16 16 16 16 15 15 13 12 10 9 9 8 7 7 7 7 8 9 8 7 6 6 6 6 7 8 8 8 8 8 7 7 6 6 6 6 5 5 5 5 5 5 6 6 6 5 5 5 4 4 3 3 4 4 4 4 4 4 3 3 3 3 2 3 3 3 3
36 35 34 33 32 30 29 26 24 23 22 22 21 20 20 19 19 18 18 17 16 15 15 14 13 12 11 10 10 9 8 7 7 7 8 8 8 7 7 6 5 5 6 7 8 8 7 7 6 5 4 4 3 3 3 3 4 5 5 4 4 5 5 5 5 5 4 3 3 2 3 3 4 4 3 3 2 2 2 2 2 2 2 2 3
37 36 35 34 33 32 30 28 26 24 23 23 21 21 20 19 19 18 18 17 17 16 15 14 13 12 11 11 11 10 9 8 8 8 7 7 7 7 6 6 5 5 5 6 6 6 7 6 6 6 5 5 4 3 1 1 2 4 5 4 3 3 4 5 6 5 5 3 2 2 3 3 3 3 3 3 2 2 2 2 2 2 2 2 2
37 36 36 34 33 33 31 29 28 25 24 23 22 22 20 19 18 18 17 16 17 16 15 14 13 13 11 11 12 11 10 9 8 7 7 6 6 6 6 5 5 5 5 5 5 5 5 5 6 7 7 7 7 5 3 1 1 3 4 4 2 2 3 4 5 5 5 4 2 2 2 3 3 2 2 3 2 3 2 2 2 1 1 1 1
39 37 36 35 34 33 32 31 29 27 26 24 23 22 20 19 17 17 16 16 17 16 15 14 14 13 12 12 12 11 10 10 9 8 7 6 5 6 5 5 5 5 5 5 5 5 5 5 6 8 8 9 8 7 5 3 2 2 3 3 2 1 2 3 4 4 5 4 3 2 2 2 3 2 2 2 3 3 2 3 2 2 2 1 1
40 38 36 36 35 34 33 32 30 29 27 25 23 22 20 19 17 16 16 16 16 16 16 15 14 14 13 12 12 11 10 10 9 8 8 7 6 6 5 5 5 5 5 5 4 4 4 5 6 7 7 8 9 9 7 6 4 3 2 3 3 2 1 1 2 3 4 4 3 2 1 1 2 2 2 2 2 2 2 3 3 3 3 2 2
40 39 38 37 36 35 34 33 32 30 29 26 24 22 20 19 17 16 16 16 16 16 16 15 15 15 14 13 11 11 10 10 9 8 7 7 7 6 5 5 5 5 5 4 4 4 4 5 5 6 6 7 9 10 9 8 6 4 3 4 3 1 1 1 1 2 3 3 3 2 2 1 1 2 2 2 2 2 2 4 4 3 3 3 3
40 40 39 38 37 36 35 34 33 32 30 28 26 24 21 19 18 16 16 16 16 15 15 15 15 15 15 13 11 10 10 10 8 7 7 7 7 6 6 5 5 4 4 4 4 4 4 5 6 6 6 6 8 10 11 10 8 7 5 4 2 1 2 2 2 1 2 2 2 3 2 2 2 1 1 1 2 2 3 4 4 4 3 3 4
41 41 40 39 38 37 37 35 34 33 31 29 27 25 22 20 19 17 17 17 16 15 15 15 16 16 15 14 12 10 10 9 8 7 6 6 6 6 6 6 5 4 4 4 3 3 4 4 5 5 5 5 7 9 12 12 11 9 6 4 2 3 3 3 3 1 2 2 3 4 4 4 3 2 2 1 1 2 2 3 4 4 4 5 4
40 40 40 40 40 39 38 37 36 34 32 30 28 26 24 22 20 18 18 18 17 16 15 16 17 17 16 14 13 12 10 9 8 7 6 5 5 5 5 5 5 5 4 4 3 3 3 3 4 4 3 3 5 7 10 12 11 9 6 4 2 3 4 4 3 2 1 2 4 5 5 5 4 3 2 2 1 1 1 2 3 3 4 5 5
40 40 40 40 40 40 39 38 37 35 33 32 30 28 26 23 21 20 19 19 18 16 16 17 18 18 16 15 14 13 11 10 9 8 6 5 5 5 5 5 6 6 5 5 4 4 3 3 3 4 3 3 4 6 8 10 10 8 5 3 3 6 6 5 3 3 3 3 4 6 6 6 5 4 3 2 1 1 1 0 2 3 3 4 5
40 39 39 39 40 41 40 39 38 36 35 33 31 29 27 25 24 23 22 21 20 18 18 19 19 19 17 15 15 13 12 11 11 10 7 6 6 6 6 6 6 7 6 5 5 4 4 3 2 3 3 3 4 6 7 8 8 7 4 3 6 7 6 5 4 4 4 4 5 5 6 7 7 7 6 5 3 2 3 2 1 0 2 3 4
39 38 38 39 40 41 41 40 39 38 36 34 33 31 29 28 26 25 25 24 22 21 20 21 21 20 17 15 15 14 13 12 12 11 9 8 7 6 6 7 7 7 7 6 5 4 4 4 3 2 3 4 4 6 6 7 7 7 6 5 6 6 5 4 4 5 5 4 4 4 5 6 7 7 8 7 5 4 4 4 3 3 1 1 2
39 39 38 39 40 42 42 42 41 39 38 36 35 33 32 30 29 28 27 27 25 23 22 22 22 21 18 16 15 14 13 13 12 11 10 10 9 8 7 7 8 8 7 6 5 5 5 5 5 4 4 4 5 6 6 8 8 7 7 6 6 5 5 4 4 4 4 3 2 2 3 4 5 6 8 9 8 7 6 5 4 4 3 2 2
41 40 38 38 40 41 42 43 42 41 40 38 37 35 33 32 30 29 27 27 27 25 23 23 22 21 19 17 17 16 14 13 12 12 11 10 10 10 9 8 8 8 7 6 6 6 6 6 5 5 5 5 6 7 7 9 9 7 7 6 6 6 5 4 4 4 3 3 1 0 2 2 3 4 6 7 8 8 8 8 7 5 4 3 2
41 39 38 37 39 41 42 43 42 42 41 39 38 37 34 32 30 28 27 26 27 26 25 23 22 21 19 18 18 17 15 14 13 12 11 11 11 11 11 10 9 8 8 7 7 7 6 7 6 6 5 5 7 8 9 10 9 7 7 6 6 6 6 5 5 4 4 4 3 2 2 3 3 3 4 5 6 6 6 8 9 7 5 4 4
41 40 39 37 38 41 42 43 43 43 42 41 39 37 35 33 31 30 28 27 27 27 26 25 23 21 20 19 18 18 16 15 13 12 12 12 12 12 12 11 10 9 8 8 8 7 6 7 7 6 6 6 6 8 9 11 9 7 7 6 6 6 6 5 5 4 4 4 4 4 4 5 5 5 4 4 4 4 4 5 8 8 7 5 5
43 42 40 39 38 39 41 42 43 43 42 41 40 38 37 35 33 32 30 29 29 28 28 27 24 23 21 20 19 18 17 16 13 11 11 11 12 13 13 12 11 10 9 8 8 7 7 6 7 7 7 6 6 7 9 11 11 9 8 6 5 6 6 6 5 5 6 6 5 5 5 6 7 7 6 5 5 4 3 3 6 8 7 5 4
45 43 41 39 38 38 38 40 42 42 42 41 40 39 39 37 36 35 33 32 31 30 29 28 26 24 22 21 20 20 19 17 15 11 10 11 12 13 13 13 12 11 10 9 8 8 7 7 7 8 7 6 7 7 9 10 11 11 10 8 6 5 5 6 7 6 7 7 6 6 6 7 8 8 7 7 6 5 4 3 4 7 8 6 3
46 44 41 39 38 38 37 38 39 41 42 42 41 40 40 39 38 37 35 34 33 32 30 28 26 24 22 21 21 20 20 18 16 13 11 11 11 11 12 12 13 12 11 11 10 9 8 7 8 8 8 8 8 8 9 10 11 11 11 11 9 7 5 5 7 8 9 8 7 7 7 8 9 9 8 7 7 5 4 4 4 5 6 6 3
47 45 43 41 39 38 36 36 37 38 40 41 41 41 41 40 39 38 37 35 34 32 30 28 27 26 24 22 22 21 20 19 17 15 13 12 11 11 11 12 12 12 12 12 11 9 9 9 9 9 9 9 9 9 9 11 12 12 12 12 11 10 7 6 7 8 10 11 10 8 8 8 8 8 8 7 8 6 5 4 4 4 4 5 4
48 47 45 43 41 39 36 35 36 37 38 39 40 41 41 40 40 39 38 37 35 33 31 29 28 27 26 24 23 22 21 20 18 17 15 14 13 12 12 12 12 12 13 13 12 11 11 11 11 10 10 10 10 10 10 11 12 12 12 12 12 12 11 9 8 8 10 12 13 11 9 9 9 8 7 7 7 6 6 5 5 5 4 3 3
49 48 46 45 43 41 39 37 36 36 37 37 38 39 39 40 41 40 40 38 36 34 33 32 30 29 27 26 25 24 23 21 19 18 17 16 15 14 13 13 13 13 13 13 13 13 13 12 12 11 11 11 11 11 11 11 12 13 13 13 13 13 13 12 9 9 11 13 14 13 11 10 11 9 7 7 6 6 7 7 6 6 5 4 4
49 48 47 47 45 44 42 40 37 36 36 37 37 37 38 39 40 40 40 39 37 36 35 34 33 31 29 27 26 24 23 22 20 19 18 17 17 16 15 14 14 14 14 14 13 13 13 13 13 13 12 11 11 11 11 11 11 12 13 13 13 12 13 12 10 10 11 12 13 14 13 12 12 10 7 8 8 8 8 9 8 7 6 6 6
Wind_Direction
144 142 139 134 131 131 134 136 136 137 137 138 138 139 140 140 141 143 144 144 145 145 145 144 145 144 143 141 140 138 137 136 132 127 121 119 118 119 120 115 107 100 95 87 78 72 74 81 86 91 94 95 99 104 113 117 114 115 113 109 109 109 107 106 103 98 99 105 111 116 119 122 119 114 109 104 100 97 96 92 92 96 95 94 90
145 143 140 134 132 133 137 138 137 138 138 137 137 139 140 143 145 146 147 146 147 147 147 147 146 145 144 143 143 143 142 139 131 123 118 118 118 120 118 111 106 99 92 84 75 72 81 89 92 97 102 104 105 106 112 115 112 114 114 114 114 112 110 108 104 102 104 111 119 124 125 123 118 113 109 104 101 100 97 94 98 100 96 95 93
146 144 141 135 134 138 139 139 139 139 137 136 136 138 141 144 146 147 147 147 148 148 148 146 145 144 142 141 142 144 141 135 127 120 118 121 124 125 120 114 112 107 97 88 78 73 81 92 94 97 105 107 112 118 121 118 116 120 119 120 120 114 113 109 105 106 111 118 124 128 124 121 120 115 110 108 108 107 103 102 105 105 97 93 91
147 145 142 138 137 141 142 142 141 138 135 135 135 135 137 140 141 141 140 140 141 142 142 142 142 141 140 140 140 140 136 130 124 121 124 128 133 130 121 117 114 110 104 98 89 77 80 92 94 97 103 105 112 119 119 118 121 125 122 121 120 114 113 109 106 111 116 122 125 122 119 122 123 116 111 110 111 111 111 112 110 105 97 93 89
148 146 144 141 139 142 146 146 142 138 135 134 133 134 133 132 133 132 132 133 133 134 135 136 137 138 140 140 139 138 134 129 126 125 130 133 134 130 123 125 124 118 114 108 96 82 83 96 101 105 110 107 108 112 114 116 118 118 116 116 113 111 111 110 110 112 113 122 121 111 114 124 126 119 114 113 112 114 114 115 112 106 101 98 92
151 147 147 144 141 145 148 146 142 139 137 135 133 132 129 126 126 125 127 128 129 131 131 133 135 137 139 141 140 140 137 129 124 125 132 134 130 129 128 130 130 124 121 111 94 83 88 100 105 110 113 111 109 111 112 111 110 108 107 108 107 108 110 112 115 114 116 122 115 107 113 123 129 121 114 113 115 117 116 114 111 107 106 104 99
152 149 148 146 144 147 148 144 142 141 139 137 134 132 130 127 125 126 128 127 129 130 131 133 134 137 139 139 140 139 135 123 118 124 131 133 131 132 132 132 132 126 121 111 94 84 90 103 104 111 115 112 112 112 110 108 108 106 104 104 103 105 105 106 110 113 116 115 108 105 110 120 125 118 115 118 120 119 114 112 112 112 113 107 104
153 152 151 150 147 146 146 144 143 144 142 139 136 134 133 132 131 130 131 131 131 132 132 134 135 136 136 137 137 133 123 114 117 127 130 131 133 134 132 131 130 125 120 111 100 88 92 105 105 112 116 115 116 114 113 111 109 107 104 101 99 99 99 100 102 107 109 106 102 102 108 116 117 114 118 122 122 118 113 116 118 117 115 107 107
155 155 154 152 148 146 145 145 145 145 143 139 137 136 136 136 135 134 134 133 133 134 135 135 136 133 133 133 130 126 116 114 120 124 124 127 128 128 128 126 123 121 118 112 106 93 95 109 111 114 116 113 114 113 112 111 109 107 105 102 98 97 97 97 97 100 106 105 102 105 110 113 114 113 117 119 120 118 119 125 124 120 114 109 108
157 156 155 154 149 147 147 146 148 146 143 139 137 137 138 137 136 137 136 135 134 134 136 135 134 132 131 129 123 120 115 114 117 117 118 121 119 119 121 121 119 120 118 117 113 99 98 111 116 115 113 110 110 110 110 110 112 108 104 101 98 99 99 96 92 91 101 105 101 106 109 110 114 115 118 121 123 124 128 131 124 118 111 106 103
158 156 155 156 152 148 149 149 150 147 144 141 138 138 139 139 139 139 138 137 135 133 134 133 131 131 127 123 119 115 112 112 113 114 115 116 115 115 115 116 118 121 120 119 116 105 103 114 120 114 111 111 109 111 112 113 112 106 101 99 99 100 102 100 94 90 98 107 103 102 102 104 110 113 118 123 126 128 130 127 121 116 109 101 96
158 157 156 158 154 150 151 151 152 149 145 142 139 140 140 141 141 139 139 137 137 135 133 131 129 126 121 118 117 113 112 111 110 112 113 113 115 116 116 115 116 121 121 119 117 112 107 114 122 120 114 109 106 111 115 115 109 103 99 99 100 100 103 104 101 96 99 109 109 104 101 102 107 110 114 119 124 125 124 122 120 114 107 99 93
159 158 157 159 155 152 153 153 154 149 146 144 141 142 142 142 140 137 137 138 138 136 132 128 126 123 121 119 116 116 114 112 111 111 108 107 111 113 114 115 118 122 124 125 124 119 112 111 119 125 119 106 101 104 110 112 107 103 101 99 98 95 99 103 103 102 101 105 107 107 105 105 106 108 111 114 118 117 117 117 116 110 105 98 93
160 159 158 160 156 154 156 156 155 150 147 144 144 145 143 142 140 140 139 141 140 135 132 127 126 123 121 117 115 115 112 112 110 109 107 108 109 107 108 109 114 119 123 127 126 124 118 111 117 125 121 111 104 105 110 112 108 104 103 99 96 93 95 101 104 106 105 104 103 105 106 106 106 107 110 113 116 115 115 112 110 111 109 103 96
161 159 158 159 157 156 157 157 156 151 147 146 147 146 143 143 142 143 144 144 141 137 133 129 127 122 119 115 113 112 110 110 108 109 109 109 108 105 107 108 107 110 116 122 125 128 124 117 121 127 121 114 110 109 112 111 109 107 106 102 101 99 97 99 101 104 105 105 105 106 105 105 107 110 112 115 119 118 115 113 112 114 113 108 102
162 160 159 160 159 157 158 159 157 151 149 149 148 146 143 143 143 144 144 144 141 137 133 128 125 120 118 114 111 111 110 109 107 106 106 108 107 106 111 111 109 108 113 119 124 126 125 124 124 128 123 117 115 110 106 105 110 111 109 107 105 105 101 97 97 100 101 101 102 104 104 105 109 112 114 117 119 119 115 112 113 115 114 114 112
163 162 161 163 161 159 160 159 157 153 152 150 148 147 145 143 143 143 142 141 139 137 132 129 126 122 121 118 115 111 109 108 105 101 100 107 107 108 110 108 108 108 113 116 119 124 129 130 125 127 124 118 115 108 102 101 105 107 109 109 108 108 104 101 98 99 100 101 100 101 102 102 105 104 106 109 109 113 112 112 116 121 122 122 122
165 166 165 166 164 161 161 159 156 155 153 152 150 148 146 144 143 141 140 139 139 137 132 130 128 125 123 121 119 114 111 109 107 104 99 99 100 102 102 102 106 108 111 112 117 127 132 133 127 126 124 117 112 109 103 100 101 101 105 106 107 110 109 107 103 102 103 103 105 107 105 101 101 98 100 106 108 110 111 116 123 133 137 133 132
167 169 169 170 167 163 163 160 157 157 156 154 151 149 148 145 141 141 139 139 139 135 131 130 128 125 123 122 120 118 116 113 110 110 107 102 96 93 92 94 100 102 104 107 112 122 128 132 128 125 122 118 114 111 103 100 105 104 103 101 101 104 109 109 105 105 105 105 105 108 111 110 109 106 104 107 111 115 114 116 122 134 138 135 141
171 173 174 174 171 166 165 162 160 161 160 155 152 151 149 146 142 141 140 141 138 134 131 129 126 125 125 124 124 124 121 118 116 114 114 112 107 102 99 99 100 102 104 107 112 116 121 127 127 125 119 114 112 110 107 106 109 107 106 103 97 98 102 106 108 109 109 108 105 105 110 113 114 114 113 110 109 111 112 115 122 131 128 132 147
174 176 177 178 173 170 168 164 164 165 162 158 155 153 150 149 145 143 142 142 138 135 133 129 128 127 127 128 128 129 125 123 120 118 117 115 115 116 117 115 111 111 111 113 118 119 119 121 122 121 117 114 113 115 116 115 111 108 109 104 98 96 98 103 107 112 115 115 111 108 109 110 112 113 116 117 115 113 112 115 123 127 126 137 156
176 178 181 182 176 173 172 168 168 167 165 162 159 156 154 152 150 148 146 145 143 139 137 134 133 129 129 130 130 131 128 125 123 122 119 117 119 121 124 124 120 117 114 115 116 118 117 115 115 118 119 117 119 120 119 117 111 108 108 105 101 98 99 103 106 110 117 122 119 114 113 110 109 109 113 116 114 115 116 119 126 131 134 142 154
178 181 183 183 180 178 175 172 171 170 168 165 163 161 158 157 155 152 150 150 149 145 142 140 135 130 128 130 130 132 130 128 128 127 122 120 120 118 121 124 125 122 119 118 118 120 118 116 114 116 119 119 120 119 116 110 103 103 105 104 102 99 99 105 110 113 118 125 127 125 125 118 111 112 115 114 111 109 110 114 123 130 136 142 144
181 184 184 184 183 182 178 175 174 172 170 167 166 165 162 161 159 156 155 155 152 149 146 141 136 132 132 134 134 134 134 133 133 130 126 124 121 117 116 117 122 123 122 121 119 123 123 122 120 118 118 118 117 112 106 97 91 93 96 98 98 99 100 105 114 118 118 123 129 129 130 126 119 120 119 117 112 103 100 100 111 121 129 136 133
182 186 186 184 185 185 182 178 177 174 172 170 169 168 166 165 163 160 158 157 154 150 147 144 141 139 140 141 143 142 140 140 136 130 127 125 121 117 114 114 115 118 122 120 117 122 124 123 122 121 120 118 115 110 104 95 88 85 85 90 94 96 96 100 109 118 123 125 132 133 134 132 126 124 122 120 113 101 96 92 100 109 116 126 128
185 188 188 185 185 186 185 181 178 176 174 173 171 169 169 167 165 164 160 158 156 153 151 151 150 149 150 149 151 151 147 146 143 135 127 126 124 120 116 116 117 118 128 128 124 127 126 124 122 122 121 120 119 114 109 98 88 80 79 82 83 88 90 93 101 112 124 131 138 140 140 138 136 133 126 122 118 109 100 94 94 94 102 114 121
187 190 189 186 186 187 187 184 179 176 175 174 173 170 169 167 166 165 161 159 158 157 157 156 156 156 156 155 157 156 151 146 145 141 133 130 129 126 123 121 121 125 139 144 142 140 135 132 127 125 124 121 119 114 108 98 85 73 69 71 72 78 84 89 97 107 118 130 144 151 150 150 149 143 137 132 122 118 112 103 97 87 87 92 104
189 191 191 188 187 187 186 186 181 177 174 172 172 169 168 168 166 165 163 162 161 161 160 160 160 159 157 157 161 161 153 143 142 144 139 135 132 131 130 127 129 134 148 159 160 157 153 147 139 136 134 127 118 109 100 85 70 60 55 58 65 71 74 74 78 91 104 118 133 155 162 164 162 155 155 151 129 127 128 114 102 90 82 77 83
192 192 192 190 188 187 186 186 183 178 174 171 169 168 168 168 167 166 167 166 165 164 164 165 163 160 160 162 164 161 153 144 144 147 142 139 137 134 132 133 137 140 148 160 167 170 170 169 166 162 164 162 147 124 97 61 38 32 31 37 57 69 69 64 58 64 76 99 115 138 162 170 172 170 167 159 144 149 147 132 123 105 93 81 76
195 194 194 191 189 189 186 186 185 181 176 172 169 167 167 167 166 167 170 169 166 167 169 169 167 165 167 168 166 162 154 149 148 148 147 144 142 138 137 139 142 142 145 152 161 169 176 185 193 192 196 201 197 186 166 49 13 10 11 8 32 65 66 62 52 49 52 69 91 116 150 163 174 181 182 172 168 179 172 159 150 136 125 99 86
197 197 195 193 191 190 188 187 186 185 180 175 171 168 167 166 165 167 170 170 170 172 172 172 172 171 172 171 168 165 162 160 155 153 155 153 149 147 145 146 147 149 150 153 158 164 172 188 204 209 217 219 216 210 205 216 326 356 6 355 351 38 49 54 47 40 41 44 54 92 136 151 162 175 186 182 191 199 200 199 192 179 165 131 110
200 199 197 195 193 193 191 189 188 188 184 180 176 174 172 169 168 169 169 172 176 178 178 176 175 175 175 172 168 168 170 169 162 158 158 158 158 158 156 154 154 157 157 160 164 165 170 183 199 211 223 224 220 215 211 219 262 322 354 351 342 349 21 48 42 33 33 33 33 43 104 146 160 162 173 183 198 205 214 224 228 240 237 224 210
202 201 200 198 196 195 194 192 191 190 188 185 182 180 178 175 175 174 171 175 181 184 186 183 178 179 181 176 172 171 172 172 167 161 160 162 164 163 162 160 161 166 165 164 164 166 176 191 200 206 216 223 224 219 216 222 240 277 317 335 339 319 316 62 45 26 23 30 32 28 59 132 164 170 173 190 215 215 229 239 238 252 261 264 266
203 202 203 201 198 197 196 196 194 193 192 189 188 187 184 182 182 180 179 181 185 188 191 188 183 184 185 182 181 178 175 174 171 166 166 170 172 171 172 171 174 184 185 178 169 173 186 198 205 206 209 218 228 227 224 226 240 261 286 319 332 303 242 179 90 27 14 23 39 41 50 84 148 175 175 188 225 232 246 251 243 244 262 272 269
205 204 204 203 201 199 199 199 197 196 195 194 193 192 191 188 187 187 186 188 191 192 194 193 188 187 188 188 189 185 181 181 180 177 177 177 180 183 184 184 188 194 197 189 175 176 187 195 200 210 215 219 231 231 227 226 236 253 271 307 321 207 181 151 134 53 10 20 54 75 83 85 94 102 134 171 214 228 246 259 259 253 253 262 260
207 206 205 205 204 202 201 201 201 200 198 198 197 197 197 195 193 193 192 195 197 196 198 197 194 193 193 193 194 191 188 190 192 190 186 182 183 185 187 191 196 195 200 201 184 178 189 197 203 215 224 228 232 230 228 226 232 246 261 293 285 195 171 137 130 108 18 28 65 83 91 90 90 90 86 104 183 213 234 254 269 269 263 263 260
208 208 207 207 206 204 204 204 204 204 202 202 201 201 202 201 199 199 199 201 202 202 201 200 199 199 198 196 197 195 192 195 200 198 191 188 184 184 191 196 197 200 211 216 209 203 203 203 210 217 222 229 229 227 225 224 230 241 253 279 264 191 169 144 128 117 70 59 72 77 78 79 85 92 94 96 114 156 211 226 245 264 269 271 269
210 210 210 209 208 207 206 207 207 207 207 206 205 205 206 206 205 204 205 206 207 207 204 203 202 203 203 200 199 200 198 199 205 203 194 194 191 192 206 208 205 211 218 220 223 231 229 221 218 215 215 223 229 230 224 223 230 236 245 255 196 167 162 152 131 123 112 95 87 77 69 67 68 60 48 49 78 92 83 165 223 240 254 267 272
212 212 212 211 210 210 209 209 210 210 210 210 209 209 209 210 210 208 209 210 211 208 206 207 205 205 206 203 202 205 206 206 210 209 201 205 204 202 216 219 217 221 222 223 229 241 248 244 237 221 219 223 228 233 227 224 227 220 216 195 163 155 155 151 139 137 133 115 95 79 65 57 59 50 34 28 41 75 68 50 39 256 239 252 262
213 213 213 213 212 212 211 211 212 212 212 212 212 211 210 211 211 210 210 210 210 209 209 210 209 207 206 203 202 207 212 212 215 216 213 217 220 218 223 225 226 228 229 231 236 246 253 248 251 245 232 230 228 230 225 217 209 198 194 179 159 155 155 151 148 150 152 137 102 76 62 53 55 50 42 42 48 60 55 40 31 23 11 308 274
214 214 215 215 214 213 213 213 213 213 213 213 213 212 210 209 209 209 210 210 209 209 210 211 212 210 206 202 202 208 214 217 220 221 221 224 228 228 229 229 233 237 239 239 236 238 242 240 242 241 235 233 226 220 212 202 195 194 197 187 173 170 166 162 165 166 170 166 131 70 49 43 45 43 46 53 55 54 46 34 22 10 6 355 331
213 215 217 217 215 213 214 214 214 214 214 214 214 214 211 209 210 210 210 211 211 210 212 213 214 212 208 204 204 209 214 220 226 227 228 230 230 231 232 233 238 244 246 242 238 238 238 236 239 241 238 235 229 221 208 198 195 196 202 202 197 192 187 186 187 188 201 207 206 3 13 9 12 24 41 54 58 57 49 39 27 15 4 351 336
215 216 217 217 216 214 214 215 216 216 215 214 215 215 214 211 212 213 213 214 215 214 215 215 215 214 212 209 209 211 214 221 228 232 234 234 234 233 233 236 240 245 249 248 250 254 250 242 242 245 241 235 233 228 214 204 203 203 204 207 210 213 217 220 215 207 213 220 234 265 304 321 319 334 10 36 49 52 49 41 31 22 10 353 335
216 216 216 215 215 215 215 216 217 218 217 215 215 217 216 214 214 215 215 216 218 217 217 217 216 216 216 216 216 214 214 218 225 233 238 237 237 236 235 238 241 245 251 255 259 263 262 253 248 247 244 241 239 236 223 210 208 210 209 206 211 224 233 240 239 233 233 234 239 260 280 293 294 300 318 346 11 24 35 35 28 21 11 355 336
215 216 216 214 214 215 215 216 217 219 219 217 216 216 217 216 215 214 214 217 219 218 218 217 215 216 217 219 220 218 215 215 218 229 239 241 242 242 239 238 240 243 249 258 262 260 259 255 248 245 245 244 241 239 229 216 210 212 214 210 214 232 244 254 259 252 247 250 254 264 274 280 284 288 292 301 326 352 4 16 20 15 11 2 338
215 217 217 216 216 216 216 216 217 218 219 218 216 216 216 216 216 215 214 216 218 218 218 219 218 219 218 219 222 222 218 216 216 221 233 241 244 246 243 238 239 242 245 252 256 254 255 252 247 245 242 239 237 235 230 223 217 217 217 215 221 240 257 266 267 267 260 255 253 255 264 274 280 283 282 285 295 317 332 343 4 8 10 10 352
215 216 217 218 218 218 218 217 217 218 219 219 217 216 216 216 217 218 218 218 219 219 219 220 223 224 222 222 223 223 222 219 216 216 223 234 239 243 243 238 238 241 242 244 246 252 257 254 249 247 242 235 232 230 229 228 226 225 223 220 222 226 241 264 266 272 273 267 262 260 265 272 276 279 278 275 276 289 304 308 333 352 6 13 15
214 215 216 218 218 218 218 218 218 218 219 219 219 218 216 216 218 219 221 222 223 223 221 222 224 226 226 226 227 226 224 222 219 216 218 225 231 237 240 237 236 239 240 240 241 248 253 253 250 247 244 239 234 231 229 230 231 233 233 230 228 226 236 261 267 269 273 274 275 275 277 280 277 277 276 269 263 269 283 283 297 319 345 6 12
213 215 217 218 218 218 218 219 219 219 219 219 219 219 219 218 219 220 222 224 226 227 227 226 226 227 228 228 229 228 225 223 221 219 217 220 225 231 237 239 238 237 238 239 239 243 248 251 251 249 248 245 242 239 234 234 236 238 239 238 237 237 246 259 266 269 270 271 275 278 284 289 288 283 279 272 265 267 277 277 280 290 303 328 342
214 216 217 218 219 219 218 219 220 220 220 220 220 220 220 220 221 222 224 225 226 228 230 230 230 230 230 230 231 231 228 225 224 223 220 219 222 227 233 237 239 239 238 239 238 240 246 252 252 251 251 249 246 243 241 241 243 243 243 241 241 245 251 255 264 277 275 270 271 274 281 292 296 292 280 277 280 279 278 275 276 282 286 294 308
214 214 216 218 219 219 219 219 220 221 221 221 221 221 221 221 222 223 225 226 226 228 229 231 231 231 231 231 231 232 232 229 228 228 224 221 223 225 230 234 238 239 238 238 239 241 246 251 252 251 251 251 247 243 243 243 245 247 245 243 244 248 250 253 262 276 278 275 274 276 283 293 298 295 285 278 281 279 275 275 280 287 289 284 286